Weather History for Cedar City, UT

Change the Weather History Date:

Thursday, December 5, 2013

  Actual Average Record
Temperature  
Mean Temperature -2 °F 30 °F  
Max Temperature 13 °F 43 °F 64 °F (1958)
Min Temperature -18 °F 17 °F -18 °F (2013)
Degree Days  
Heating Degree Days 67 35  
Month to date heating degree days 206 172  
Since 1 July heating degree days 1734 1614  
Cooling Degree Days 0 0  
Month to date cooling degree days 0 0  
Year to date cooling degree days 667 588  
Moisture  
Dew Point -11 °F    
Average Humidity 78    
Maximum Humidity 95    
Minimum Humidity 61    
Precipitation  
Precipitation 0.00 in 0.02 in 0.36 in (1951)
Month to date precipitation 0.82 0.12  
Year to date precipitation 14.89 10.59  
Sea Level Pressure  
Sea Level Pressure 30.15 in    
Wind  
Wind Speed 2 mph (NE)    
Max Wind Speed 6 mph    
Max Gust Speed 7 mph    
Visibility 7 miles    
Events      
T = Trace of Precipitation, MM = Missing Value Source: NWS Daily Summary

Daily Weather History Graph

Daily Weather History Graph

Search for Another Location

Airport:

Trip Planner

Search our weather history database for the weather conditions in past years. The results will help you decide how hot, cold, wet, or windy it might be!

Date:

Astronomy

Dec. 05, 2013 Rise Set
Actual Time 7:32 AM MST 5:13 PM MST
Civil Twilight 7:03 AM MST 5:42 PM MST
Nautical Twilight 6:31 AM MST 6:15 PM MST
Astronomical Twilight 5:59 AM MST 6:46 PM MST
Moon 9:57 AM MST (12/5) 8:36 PM MST (12/5)
Length of Visible Light 10h 38m
Length of Day
9h 40m
Waxing Crescent, 11% of the Moon is Illuminated
Dec 5
Waxing Crescent
Dec 9
First Quarter
Dec 17
Full
Dec 25
Last Quarter
Jan 1
New

Hourly Weather History & Observations

Time (MST) Temp. Windchill Dew Point Humidity Pressure Visibility Wind Dir Wind Speed Gust Speed Precip Events Conditions
12:53 AM -9.9 °F -19.2 °F -15.0 °F 78% 30.19 in 10.0 mi NE 3.5 mph - N/A   Clear
1:53 AM -9.0 °F - -14.1 °F 79% 30.16 in 10.0 mi Calm Calm - N/A   Clear
2:53 AM -9.9 °F - -16.1 °F 74% 30.16 in 10.0 mi Calm Calm - N/A   Clear
3:53 AM -13.0 °F - -18.0 °F 78% 30.18 in 10.0 mi Calm Calm - N/A   Clear
4:53 AM -11.0 °F - -16.1 °F 78% 30.17 in 10.0 mi Calm Calm - N/A   Clear
5:53 AM -9.9 °F - -17.0 °F 71% 30.22 in 10.0 mi Calm Calm - N/A   Clear
6:53 AM -13.0 °F - -18.0 °F 78% 30.23 in 10.0 mi Calm Calm - N/A   Clear
7:50 AM -11.2 °F -20.6 °F -16.6 °F 77% 29.92 in 2.5 mi ENE 3.5 mph - N/A   Haze
7:53 AM -11.9 °F -23.8 °F -17.0 °F 78% 30.27 in 2.0 mi ENE 4.6 mph - N/A   Haze
8:00 AM -14.1 °F -23.9 °F -18.9 °F 79% 29.92 in 0.8 mi NE 3.5 mph - N/A   Haze
8:09 AM -11.9 °F -21.5 °F -17.0 °F 78% 29.92 in 2.0 mi ENE 3.5 mph - N/A   Haze
8:15 AM -11.0 °F -22.8 °F -16.1 °F 78% 29.91 in 0.8 mi NNE 4.6 mph - N/A   Haze
8:34 AM -8.0 °F -19.2 °F -13.0 °F 79% 29.92 in 2.0 mi North 4.6 mph - N/A   Haze
8:43 AM -7.1 °F -19.9 °F -13.0 °F 75% 29.93 in 10.0 mi North 5.8 mph - N/A   Clear
8:53 AM -7.1 °F -19.9 °F -14.1 °F 72% 30.27 in 1.8 mi ENE 5.8 mph - N/A   Haze
9:04 AM -9.0 °F -20.4 °F -15.0 °F 75% 29.94 in 3.0 mi East 4.6 mph - N/A   Haze
9:53 AM -0.0 °F - -5.1 °F 79% 30.27 in 10.0 mi Calm Calm - N/A   Clear
10:53 AM 1.9 °F - -0.9 °F 88% 30.27 in 10.0 mi Calm Calm - N/A   Clear
11:53 AM 7.0 °F 0.1 °F -0.9 °F 70% 30.24 in 10.0 mi ENE 3.5 mph - N/A   Clear
12:53 PM 8.1 °F - 1.0 °F 73% 30.21 in 10.0 mi Calm Calm - N/A   Clear
1:53 PM 10.9 °F 4.7 °F 1.0 °F 64% 30.18 in 10.0 mi NNW 3.5 mph - N/A   Clear
2:53 PM 12.0 °F - 1.9 °F 64% 30.19 in 10.0 mi Calm Calm - N/A   Clear
3:53 PM 10.9 °F - 1.9 °F 67% 30.21 in 10.0 mi Calm Calm - N/A   Clear
4:53 PM 8.1 °F - 1.9 °F 76% 30.22 in 10.0 mi Calm Calm - N/A   Clear
5:53 PM -0.0 °F - -2.0 °F 91% 30.25 in 10.0 mi Calm Calm - N/A   Clear
6:53 PM -0.9 °F -11.0 °F -6.0 °F 79% 30.29 in 9.0 mi NE 4.6 mph - N/A   Clear
7:53 PM -2.9 °F - -9.0 °F 75% 30.30 in 10.0 mi Calm Calm - N/A   Clear
8:53 PM -6.0 °F - -9.9 °F 83% 30.31 in 8.0 mi Calm Calm - N/A   Clear
9:53 PM -8.0 °F -16.9 °F -11.0 °F 86% 30.30 in 2.5 mi ENE 3.5 mph - N/A   Clear
10:03 PM -9.0 °F - -11.0 °F 91% 29.97 in 7.0 mi Calm Calm - N/A   Clear
10:31 PM -11.9 °F - -16.1 °F 82% 29.98 in 1.5 mi Calm Calm - N/A   Clear
10:41 PM -13.0 °F - -16.1 °F 86% 29.98 in 3.0 mi Calm Calm - N/A   Clear
10:53 PM -7.1 °F - -11.9 °F 79% 30.28 in 7.0 mi Calm Calm - N/A   Clear
11:53 PM -9.0 °F -20.4 °F -13.0 °F 83% 30.28 in 10.0 mi NE 4.6 mph - N/A   Clear